547  
ASUS43 KFGF 210631  
RWRFGF  
PRAIRIE TO PINES WEATHER ROUNDUP  
NATIONAL WEATHER SERVICE EASTERN NORTH DAKOTA/GRAND FORKS ND  
100 AM CDT SAT SEP 21 2019  
 
**SATELLITE DATA USED TO AUGMENT SKY COVER AT AUTOMATED STATIONS**  
***** WEATHER ACROSS EASTERN NORTH DAKOTA *****  
 
CITY SKY/WX TMP DP RH WIND PRES REMARKS
 
GRAND FORKS LGT RAIN 64 61 90 SW5 29.71S  
6HR MIN TEMP: 64; 6HR MAX TEMP: 72; 6HR PCP: 3.79;  
 
GRAND FRKS AFB LGT RAIN 63 63 100 SW5 29.72F  
GRAND FRKS NWS N/A 63 62 96 SW3 29.69S  
DEVILS LAKE LGT RAIN 63 63 100 SW12 29.70R  
6HR MIN TEMP: 61; 6HR MAX TEMP: 75; 6HR PCP: 0.67;  
 
FARGO FAIR 77 68 73 S18G29 29.69F  
WAHPETON ARPT N/A 73 64 73 S18 29.74R  

 
 
***** WEATHER ACROSS CENTRAL AND WESTERN NORTH DAKOTA *****  
 
CITY SKY/WX TMP DP RH WIND PRES REMARKS
 
BISMARCK MOCLDY 64 63 96 NE10 29.61F  
6HR MIN TEMP: 63; 6HR MAX TEMP: 64; 6HR PCP: 0.95;  
 
MINOT CLOUDY 63 61 93 N6 29.67R  
6HR MIN TEMP: 60; 6HR MAX TEMP: 63;  
 
JAMESTOWN LGT RAIN 62 60 93 NE13G20 29.71S  
6HR MIN TEMP: 63; 6HR MAX TEMP: 79; 6HR PCP: TRACE;  
 
MINOT AFB LGT RAIN 63 61 94 N8 29.66R  
GARRISON N/A 61 60 97 NE7 29.67R  
WILLISTON HVY RAIN 57 53 86 NW25G46 29.74R FOG  
6HR MIN TEMP: 57; 6HR MAX TEMP: 68; 6HR PCP: 0.15;  
 
DICKINSON MOCLDY 62 61 96 NW12 29.70R  
6HR MIN TEMP: 63; 6HR MAX TEMP: 70;  
 
HETTINGER RAIN 59 57 93 W15G24 29.75R  
6HR MIN TEMP: 57; 6HR MAX TEMP: 68; 6HR PCP: 0.02;  
 

 
 
***** OTHER AIRPORT OBSERVATIONS IN OUR AREA *****  
 
CITY SKY/WX TMP DP RH WIND PRES REMARKS
 
WALHALLA CLOUDY 63 63 100 S8 29.68S  
GRAFTON AIRPOR CLOUDY 64 64 100 S5 29.71F FOG  
VALLEY CITY AR CLOUDY 64 63 94 N15 29.74R  
CANDO CLOUDY 63 63 100 S8 29.71F  
CAVALIER APRT LGT RAIN 63 63 100 S5 29.68F  
GWINNER CLEAR 73 70 88 S10 29.70S  
SHEYENNE NWR N/A 75 68 77 S13 29.95S  
ROLLA CLOUDY 61 61 100 SE9 29.70F  
***** THE ABOVE OBSERVATIONS ARE NON NWS ARE NOT QUALITY  
CONTROLLED AND MAY MIS-REPORT RAIN FOR SNOW...  

 
 
***** WEATHER ACROSS NORTHERN MINNESOTA *****  
 
CITY SKY/WX TMP DP RH WIND PRES REMARKS
 
FLAG ISLAND TSTM 64 61 88 S5 29.74S  
WARROAD TSTM 64 61 88 E5 29.68F  
ROSEAU NOT AVBL  
HALLOCK TSTM 64 63 94 S7 29.69R  
THF RVR FALLS TSTM 64 63 94 W17 29.71S  
6HR MIN TEMP: 65; 6HR MAX TEMP: 78; 6HR PCP: 1.79;  
 
BAUDETTE LGT RAIN 70 67 90 SE14G23 29.73F  
6HR MIN TEMP: 66; 6HR MAX TEMP: 71; 6HR PCP: 0.03;  
 
WASKISH N/A 72 68 88 S10G21 29.74F  
CROOKSTON HVY RAIN 63 63 100 NW18 29.73R  

 
***** WEATHER ACROSS CENTRAL AND WEST MINNESOTA *****  
 
CITY SKY/WX TMP DP RH WIND PRES REMARKS
 
FOSSTON FAIR 73 66 78 S20G25 29.72S  
BEMIDJI FAIR 73 69 87 S15G24 29.76F  
6HR MIN TEMP: 72; 6HR MAX TEMP: 74;  
 
PARK RAPIDS FAIR 73 68 84 S15 29.80F  
6HR MIN TEMP: 73; 6HR MAX TEMP: 77;  
 
ELBOW LAKE MOCLDY 73 67 80 S21G28 29.79S  
6HR MIN TEMP: 74; 6HR MAX TEMP: 79;  
 
WADENA FAIR 73 66 78 S15G22 29.80S  
DETROIT LAKES FAIR 75 64 69 S14G20 29.76F  
MOORHEAD FAIR 77 66 69 S17G26 29.71S  
FERGUS FALLS FAIR 75 66 73 S21G28 29.75S  
MORRIS MN MOCLDY 72 70 94 S9 29.75F  
STAPLES FAIR 73 66 78 S14G20 29.82S HAZE  

 
***** WEATHER ELSEWHERE ACROSS MINNESOTA *****  
 
CITY SKY/WX TMP DP RH WIND PRES REMARKS
 
DULUTH FOG 58 55 90 SE10 29.95F VSB 1/4  
6HR MIN TEMP: 58; 6HR MAX TEMP: 60;  
 
INTRNTL FALLS CLOUDY 71 65 81 S12G25 29.81F  
6HR MIN TEMP: 71; 6HR MAX TEMP: 73;  
 
ELY CLOUDY 66 64 94 S10G17 29.93F  
CLOQUET FOG 55 54 94 E6 29.94F VSB 1/4  
WHEATON NOT AVBL  
BRAINERD FAIR 77 69 76 S13G22 29.84F HAZE  
6HR MIN TEMP: 76; 6HR MAX TEMP: 79;  
 
HIBBING CLOUDY 66 64 93 SE9 29.91F  
6HR MIN TEMP: 63; 6HR MAX TEMP: 70;  
 
ALEXANDRIA NOT AVBL  
SAINT CLOUD FAIR 75 67 76 S13 29.86F  
6HR MIN TEMP: 74; 6HR MAX TEMP: 79;  
 
MINNEAPOLIS FAIR 74 67 78 SE8 29.90F  
6HR MIN TEMP: 73; 6HR MAX TEMP: 81;  
 

 
 
***** WEATHER ACROSS SOUTH DAKOTA *****  
 
CITY SKY/WX TMP DP RH WIND PRES REMARKS
 
SIOUX FALLS CLOUDY 74 65 73 S17G30 29.82S  
6HR MIN TEMP: 74; 6HR MAX TEMP: 82;  
 
BROOKINGS MOCLDY 72 70 94 S18 29.80F  
WATERTOWN MOCLDY 72 66 81 S23G33 29.77S  
6HR MIN TEMP: 72; 6HR MAX TEMP: 79;  
 
HURON FAIR 73 67 81 S20G28 29.71F  
6HR MIN TEMP: 73; 6HR MAX TEMP: 82;  
 
SISSETON N/A 72 68 87 S10G22 29.73F  
ABERDEEN FAIR 74 66 76 S20G28 29.69S  
6HR MIN TEMP: 74; 6HR MAX TEMP: 82;  
 
MITCHELL FAIR 73 66 78 S15 29.75S  
PIERRE LGT RAIN 73 58 59 SW10 29.66S  
6HR MIN TEMP: 73; 6HR MAX TEMP: 81; 6HR PCP: TRACE;  
 
MOBRIDGE FAIR 73 59 61 W17G29 29.64R  
RAPID CITY FAIR 58 54 86 NE5 29.76F  
6HR MIN TEMP: 57; 6HR MAX TEMP: 73; 6HR PCP: 0.05;  
 

 
 
***** SOME WEATHER IN NEARBY STATES *****  
 
CITY SKY/WX TMP DP RH WIND PRES REMARKS
 
GLASGOW MT CLOUDY 58 51 78 N5 29.78F  
6HR MIN TEMP: 57; 6HR MAX TEMP: 64; 6HR PCP: TRACE;  
 
GREAT FALLS MT CLOUDY 54 41 61 NW10 29.94R  
6HR MIN TEMP: 54; 6HR MAX TEMP: 61;  
 
CHEYENNE WY FAIR 57 29 34 N10 29.95S  
6HR MIN TEMP: 57; 6HR MAX TEMP: 69; 6HR PCP: TRACE;  
 
SCOTTSBLUFF NE FAIR 59 49 69 W7 29.83R  
6HR MIN TEMP: 59; 6HR MAX TEMP: 67; 6HR PCP: TRACE;  
 
OMAHA NE CLOUDY 74 69 85 S16 29.88S  
6HR MIN TEMP: 73; 6HR MAX TEMP: 80; 6HR PCP: TRACE;  
 
DES MOINES IA CLOUDY 74 67 78 S9 29.93F  
6HR MIN TEMP: 74; 6HR MAX TEMP: 82; 6HR PCP: TRACE;  
 
DAVENPORT IA FAIR 76 68 76 S12 30.04F  
6HR MIN TEMP: 75; 6HR MAX TEMP: 80;  
 
CHICAGO IL FAIR 74 67 78 S7 30.09F  
6HR MIN TEMP: 74; 6HR MAX TEMP: 82;  
 
EAU CLAIRE WI FAIR 74 67 78 SE6 29.96F  
6HR MIN TEMP: 74; 6HR MAX TEMP: 80;  
 
LA CROSSE WI NOT AVBL  

 
 
***** SOME NATIONAL WEATHER *****  
 
CITY SKY/WX TMP DP RH WIND PRES REMARKS
 
LA GUARDIA NY PTCLDY 66 52 59 NW3 30.19R  
RALEIGH NC FAIR 60 53 77 CALM 30.29S  
6HR MIN TEMP: 59; 6HR MAX TEMP: 69;  
 
ATLANTA GA FAIR 68 52 56 E5 30.29R  
6HR MIN TEMP: 68; 6HR MAX TEMP: 78;  
 
NEW ORLEANS LA FAIR 78 70 76 E6 30.11S  
6HR MIN TEMP: 78; 6HR MAX TEMP: 85;  
 
OKLAHOMA CITY RAIN 69 67 93 S16G26 29.99F  
6HR MIN TEMP: 69; 6HR MAX TEMP: 72; 6HR PCP: 0.18;  
 
ALBUQUERQUE NM FAIR 66 32 28 S9 30.06R  
6HR MIN TEMP: 65; 6HR MAX TEMP: 84;  
 
SALT LAKE CITY FAIR 50 41 71 S7 30.10S  
6HR MIN TEMP: 50; 6HR MAX TEMP: 57;  
 
LOS ANGELES CA FAIR 70 61 73 S5 29.88R  
6HR MIN TEMP: 70; 6HR MAX TEMP: 74;  
 
BOISE ID FAIR 53 42 66 NW6 30.08R  
6HR MIN TEMP: 53; 6HR MAX TEMP: 67;  
 
SEATTLE WA MOCLDY  
 
CLICK HERE TO GO TO PREVIOUS BULLETINS.

The Nexlab ND Page
The Nexlab MN Page Main Text Page